| time (UTC) | temp F | wind direction | speed knots | gust knots | rain 1hr in | rain 24hr in | rain mn in | humidity % | barometer mb |
| 20260906225639 | 80 | 43 | 7.0 | 12.2 | 0.00 | 0.00 | 0.00 | 33 | 1012.9 |
| 20260906225139 | 80 | 36 | 7.0 | 12.2 | 0.00 | 0.00 | 0.00 | 35 | 1013.0 |
| 20260906224845 | 80 | 101 | 7.0 | 13.9 | 0.00 | 0.00 | 0.00 | 32 | 1012.9 |
| 20260906224046 | 81 | 53 | 5.2 | 13.9 | 0.00 | 0.00 | 0.00 | 24 | 1013.0 |
| 20260906223534 | 81 | 59 | 6.1 | 11.3 | 0.00 | 0.00 | 0.00 | 20 | 1013.0 |
| 20260906223009 | 81 | 74 | 7.0 | 12.2 | 0.00 | 0.00 | 0.00 | 21 | 1013.1 |
| 20260906222444 | 81 | 102 | 7.0 | 14.8 | 0.00 | 0.00 | 0.00 | 24 | 1013.2 |
| 20260906222420 | 81 | 70 | 7.8 | 14.8 | 0.00 | 0.00 | 0.00 | 22 | 1013.1 |
| 20260906221414 | 81 | 75 | 7.8 | 14.8 | 0.00 | 0.00 | 0.00 | 21 | 1013.1 |
| 20260906220915 | 80 | 83 | 7.0 | 14.8 | 0.00 | 0.00 | 0.00 | 21 | 1013.2 |
| 20260906220412 | 80 | 74 | 7.0 | 11.3 | 0.00 | 0.00 | 0.00 | 23 | 1013.3 |
| 20260906215846 | 79 | 0 | 7.0 | 10.4 | 0.00 | 0.00 | 0.00 | 27 | 1013.6 |
| 20260906215318 | 79 | 62 | 6.1 | 10.4 | 0.00 | 0.00 | 0.00 | 25 | 1013.4 |
| 20260906214753 | 80 | 73 | 7.0 | 13.9 | 0.00 | 0.00 | 0.00 | 25 | 1013.4 |
| 20260906214226 | 79 | 88 | 7.8 | 13.9 | 0.00 | 0.00 | 0.00 | 25 | 1013.4 |
| 20260906213723 | 79 | 67 | 7.8 | 13.0 | 0.00 | 0.00 | 0.00 | 25 | 1013.6 |
| 20260906213451 | 79 | 105 | 7.0 | 11.3 | 0.00 | 0.00 | 0.00 | 27 | 1013.6 |
| 20260906212655 | 79 | 99 | 7.0 | 10.4 | 0.00 | 0.00 | 0.00 | 27 | 1013.7 |
| 20260906212128 | 79 | 99 | 5.2 | 9.6 | 0.00 | 0.00 | 0.00 | 27 | 1013.8 |
| 20260906211626 | 78 | 96 | 5.2 | 10.4 | 0.00 | 0.00 | 0.00 | 26 | 1013.7 |
| 20260906211354 | 78 | 84 | 5.2 | 10.4 | 0.00 | 0.00 | 0.00 | 27 | 1013.8 |
| 20260906210556 | 78 | 94 | 4.3 | 10.4 | 0.00 | 0.00 | 0.00 | 29 | 1013.9 |
| 20260906210031 | 78 | 83 | 6.1 | 10.4 | 0.00 | 0.00 | 0.00 | 28 | 1014.2 |
| 20260906205505 | 78 | 112 | 4.3 | 10.4 | 0.00 | 0.00 | 0.00 | 30 | 1014.2 |
| 20260906205000 | 78 | 126 | 2.6 | 8.7 | 0.00 | 0.00 | 0.00 | 30 | 1014.3 |
| 20260906204434 | 77 | 23 | 3.5 | 9.6 | 0.00 | 0.00 | 0.00 | 32 | 1014.3 |
| 20260906203930 | 76 | 114 | 4.3 | 9.6 | 0.00 | 0.00 | 0.00 | 34 | 1014.5 |
| 20260906203405 | 76 | 106 | 4.3 | 10.4 | 0.00 | 0.00 | 0.00 | 32 | 1014.5 |
| 20260906203133 | 76 | 87 | 6.1 | 10.4 | 0.00 | 0.00 | 0.00 | 32 | 1014.6 |
| 20260906202358 | 76 | 106 | 5.2 | 13.0 | 0.00 | 0.00 | 0.00 | 32 | 1014.6 |
| 20260906202104 | 76 | 105 | 4.3 | 13.0 | 0.00 | 0.00 | 0.00 | 32 | 1014.6 |
| 20260906201329 | 76 | 103 | 5.2 | 9.6 | 0.00 | 0.00 | 0.00 | 32 | 1014.7 |
| 20260906200802 | 76 | 128 | 5.2 | 9.6 | 0.00 | 0.00 | 0.00 | 33 | 1014.9 |
| 20260906200259 | 76 | 128 | 4.3 | 9.6 | 0.00 | 0.00 | 0.00 | 33 | 1014.7 |
| 20260906195732 | 75 | 98 | 5.2 | 9.6 | 0.00 | 0.00 | 0.00 | 33 | 1014.9 |
| 20260906195230 | 75 | 153 | 6.1 | 9.6 | 0.00 | 0.00 | 0.00 | 35 | 1015.0 |
| 20260906194726 | 75 | 119 | 5.2 | 11.3 | 0.00 | 0.00 | 0.00 | 35 | 1015.2 |
| 20260906194431 | 75 | 108 | 5.2 | 11.3 | 0.00 | 0.00 | 0.00 | 35 | 1015.2 |
| 20260906193656 | 74 | 127 | 5.2 | 8.7 | 0.00 | 0.00 | 0.00 | 37 | 1015.3 |
| 20260906193155 | 74 | 107 | 5.2 | 10.4 | 0.00 | 0.00 | 0.00 | 37 | 1015.3 |
| 20260906192650 | 73 | 111 | 6.1 | 10.4 | 0.00 | 0.00 | 0.00 | 38 | 1015.6 |
| 20260906192125 | 73 | 90 | 6.1 | 10.4 | 0.00 | 0.00 | 0.00 | 38 | 1015.7 |
| 20260906191558 | 72 | 98 | 7.0 | 10.4 | 0.00 | 0.00 | 0.00 | 40 | 1015.8 |
| 20260906191033 | 72 | 107 | 7.0 | 9.6 | 0.00 | 0.00 | 0.00 | 39 | 1015.9 |
| 20260906190528 | 72 | 86 | 7.0 | 9.6 | 0.00 | 0.00 | 0.00 | 40 | 1016.0 |
| 20260906190004 | 72 | 101 | 7.0 | 9.6 | 0.00 | 0.00 | 0.00 | 39 | 1016.0 |
| 20260906185436 | 71 | 127 | 7.0 | 9.6 | 0.00 | 0.00 | 0.00 | 40 | 1016.3 |
| 20260906185141 | 71 | 114 | 6.1 | 8.7 | 0.00 | 0.00 | 0.00 | 40 | 1016.4 |
| 20260906184637 | 70 | 113 | 6.1 | 8.7 | 0.00 | 0.00 | 0.00 | 43 | 1016.5 |
| 20260906183904 | 70 | 100 | 7.0 | 10.4 | 0.00 | 0.00 | 0.00 | 43 | 1016.6 |
| 20260906183401 | 69 | 103 | 7.0 | 10.4 | 0.00 | 0.00 | 0.00 | 44 | 1016.9 |
| 20260906182834 | 69 | 106 | 5.2 | 10.4 | 0.00 | 0.00 | 0.00 | 46 | 1016.7 |
| 20260906182331 | 68 | 99 | 6.1 | 10.4 | 0.00 | 0.00 | 0.00 | 46 | 1017.0 |
| 20260906181805 | 68 | 118 | 6.1 | 10.4 | 0.00 | 0.00 | 0.00 | 48 | 1017.0 |
| 20260906181300 | 68 | 109 | 6.1 | 9.6 | 0.00 | 0.00 | 0.00 | 48 | 1017.1 |
| 20260906180734 | 67 | 88 | 6.1 | 10.4 | 0.00 | 0.00 | 0.00 | 49 | 1017.2 |
| 20260906180233 | 67 | 121 | 7.0 | 10.4 | 0.00 | 0.00 | 0.00 | 49 | 1017.2 |
| 20260906175728 | 67 | 140 | 6.1 | 9.6 | 0.00 | 0.00 | 0.00 | 50 | 1017.3 |
| 20260906175203 | 66 | 126 | 6.1 | 9.6 | 0.00 | 0.00 | 0.00 | 52 | 1017.5 |
| 20260906174921 | 66 | 128 | 6.1 | 9.6 | 0.00 | 0.00 | 0.00 | 51 | 1017.7 |
| 20260906174153 | 65 | 124 | 6.1 | 9.6 | 0.00 | 0.00 | 0.00 | 52 | 1017.8 |
| 20260906173650 | 65 | 99 | 6.1 | 9.6 | 0.00 | 0.00 | 0.00 | 52 | 1017.8 |
| 20260906173148 | 65 | 104 | 6.1 | 9.6 | 0.00 | 0.00 | 0.00 | 52 | 1017.9 |
| 20260906172647 | 65 | 113 | 5.2 | 9.6 | 0.00 | 0.00 | 0.00 | 52 | 1018.2 |
| 20260906172145 | 65 | 118 | 5.2 | 9.6 | 0.00 | 0.00 | 0.00 | 54 | 1018.2 |
| 20260906171637 | 64 | 103 | 5.2 | 9.6 | 0.00 | 0.00 | 0.00 | 53 | 1018.3 |
| 20260906171133 | 64 | 101 | 5.2 | 7.8 | 0.00 | 0.00 | 0.00 | 53 | 1018.4 |
| 20260906170628 | 64 | 92 | 6.1 | 9.6 | 0.00 | 0.00 | 0.00 | 53 | 1018.5 |
| 20260906170334 | 64 | 93 | 5.2 | 9.6 | 0.00 | 0.00 | 0.00 | 54 | 1018.5 |
| 20260906165538 | 63 | 96 | 4.3 | 8.7 | 0.00 | 0.00 | 0.00 | 55 | 1018.5 |
| 20260906165039 | 63 | 93 | 4.3 | 7.8 | 0.00 | 0.00 | 0.00 | 55 | 1018.5 |
| 20260906164514 | 63 | 107 | 4.3 | 7.8 | 0.00 | 0.00 | 0.00 | 56 | 1018.8 |
| 20260906164012 | 63 | 107 | 4.3 | 8.7 | 0.00 | 0.00 | 0.00 | 54 | 1018.6 |
| 20260906163741 | 63 | 109 | 5.2 | 8.7 | 0.00 | 0.00 | 0.00 | 56 | 1018.9 |
| 20260906163008 | 62 | 104 | 6.1 | 8.7 | 0.00 | 0.00 | 0.00 | 56 | 1018.9 |
| 20260906162506 | 62 | 105 | 6.1 | 8.7 | 0.00 | 0.00 | 0.00 | 55 | 1019.0 |
| 20260906162008 | 62 | 100 | 7.0 | 8.7 | 0.00 | 0.00 | 0.00 | 56 | 1019.1 |
| 20260906161442 | 62 | 102 | 4.3 | 8.7 | 0.00 | 0.00 | 0.00 | 57 | 1019.0 |
| 20260906160923 | 62 | 96 | 0.9 | 1.7 | 0.00 | 0.00 | 0.00 | 58 | 1019.1 |
| 20260906160919 | 62 | 119 | 1.7 | 7.8 | 0.00 | 0.00 | 0.00 | 56 | 1019.0 |
| 20260906155858 | 61 | 223 | 0.9 | 6.1 | 0.00 | 0.00 | 0.00 | 61 | 1019.2 |
| 20260906155340 | 60 | 225 | 1.7 | 6.1 | 0.00 | 0.00 | 0.00 | 62 | 1019.2 |
| 20260906154840 | 60 | 246 | 2.6 | 7.0 | 0.00 | 0.00 | 0.00 | 62 | 1019.5 |
| 20260906154340 | 60 | 255 | 4.3 | 8.7 | 0.00 | 0.00 | 0.00 | 63 | 1019.3 |
| 20260906153824 | 60 | 260 | 4.3 | 8.7 | 0.00 | 0.00 | 0.00 | 62 | 1019.5 |
| 20260906153302 | 60 | 247 | 5.2 | 8.7 | 0.00 | 0.00 | 0.00 | 64 | 1019.5 |
| 20260906153010 | 60 | 294 | 6.1 | 8.7 | 0.00 | 0.00 | 0.00 | 64 | 1019.5 |
| 20260906152452 | 59 | 252 | 6.1 | 8.7 | 0.00 | 0.00 | 0.00 | 64 | 1019.6 |
| 20260906151722 | 59 | 279 | 6.1 | 9.6 | 0.00 | 0.00 | 0.00 | 64 | 1019.6 |
| 20260906151222 | 59 | 269 | 6.1 | 9.6 | 0.00 | 0.00 | 0.00 | 64 | 1019.6 |
| 20260906150722 | 58 | 288 | 7.0 | 11.3 | 0.00 | 0.00 | 0.00 | 65 | 1019.7 |
| 20260906150222 | 58 | 293 | 7.0 | 10.4 | 0.00 | 0.00 | 0.00 | 66 | 1019.6 |
| 20260906150159 | 58 | 0 | 7.0 | 10.4 | 0.00 | 0.00 | 0.00 | 67 | 1019.7 |
| 20260906145154 | 57 | 284 | 7.8 | 10.4 | 0.00 | 0.00 | 0.00 | 68 | 1019.7 |
| 20260906144628 | 57 | 0 | 7.8 | 10.4 | 0.00 | 0.00 | 0.00 | 69 | 1019.8 |
| 20260906144101 | 56 | 0 | 7.8 | 10.4 | 0.00 | 0.00 | 0.00 | 71 | 1019.8 |
| 20260906143536 | 55 | 266 | 7.8 | 11.3 | 0.00 | 0.00 | 0.00 | 72 | 1019.8 |
| 20260906143010 | 55 | 280 | 7.8 | 11.3 | 0.00 | 0.00 | 0.00 | 75 | 1019.9 |
| 20260906142442 | 54 | 0 | 8.7 | 11.3 | 0.00 | 0.00 | 0.00 | 75 | 1019.9 |
| 20260906141933 | 54 | 273 | 7.8 | 11.3 | 0.00 | 0.00 | 0.00 | 76 | 1019.9 |
| 20260906141405 | 53 | 272 | 7.0 | 10.4 | 0.00 | 0.00 | 0.00 | 77 | 1019.9 |
| 20260906140839 | 53 | 267 | 7.8 | 10.4 | 0.00 | 0.00 | 0.00 | 79 | 1019.9 |
| 20260906140313 | 51 | 0 | 7.0 | 10.4 | 0.00 | 0.00 | 0.00 | 81 | 1019.9 |
| 20260906135747 | 50 | 0 | 7.0 | 10.4 | 0.00 | 0.00 | 0.00 | 82 | 1019.9 |
| 20260906135221 | 49 | 271 | 7.0 | 10.4 | 0.00 | 0.00 | 0.00 | 83 | 1019.9 |
| 20260906134926 | 49 | 269 | 7.0 | 9.6 | 0.00 | 0.00 | 0.00 | 84 | 1019.9 |
| 20260906134129 | 48 | 260 | 7.0 | 9.6 | 0.00 | 0.00 | 0.00 | 84 | 1019.9 |
| 20260906133625 | 48 | 259 | 7.8 | 9.6 | 0.00 | 0.00 | 0.00 | 84 | 1019.8 |
| 20260906133123 | 48 | 0 | 7.8 | 11.3 | 0.00 | 0.00 | 0.00 | 83 | 1019.8 |
| 20260906132619 | 48 | 0 | 8.7 | 11.3 | 0.00 | 0.00 | 0.00 | 83 | 1019.8 |
| 20260906132349 | 48 | 269 | 8.7 | 10.4 | 0.00 | 0.00 | 0.00 | 83 | 1019.7 |
| 20260906131619 | 47 | 0 | 8.7 | 11.3 | 0.00 | 0.00 | 0.00 | 83 | 1019.7 |
| 20260906131047 | 47 | 0 | 8.7 | 11.3 | 0.00 | 0.00 | 0.00 | 82 | 1019.7 |
| 20260906130543 | 47 | 0 | 8.7 | 11.3 | 0.00 | 0.00 | 0.00 | 81 | 1019.6 |
| 20260906130519 | 47 | 263 | 7.8 | 11.3 | 0.00 | 0.00 | 0.00 | 78 | 1019.6 |
| 20260906125513 | 48 | 263 | 5.2 | 9.6 | 0.00 | 0.00 | 0.00 | 79 | 1019.7 |
| 20260906124947 | 48 | 267 | 5.2 | 9.6 | 0.00 | 0.00 | 0.00 | 77 | 1019.7 |
| 20260906124444 | 48 | 0 | 7.0 | 9.6 | 0.00 | 0.00 | 0.00 | 77 | 1019.6 |
| 20260906123931 | 47 | 295 | 7.8 | 8.7 | 0.00 | 0.00 | 0.00 | 80 | 1019.5 |
| 20260906123434 | 45 | 294 | 7.0 | 9.6 | 0.00 | 0.00 | 0.00 | 84 | 1019.5 |
| 20260906123203 | 44 | 255 | 6.1 | 9.6 | 0.00 | 0.00 | 0.00 | 80 | 1019.5 |
| 20260906122427 | 44 | 255 | 4.3 | 8.7 | 0.00 | 0.00 | 0.00 | 87 | 1019.5 |
| 20260906121901 | 41 | 276 | 1.7 | 8.7 | 0.00 | 0.00 | 0.00 | 90 | 1019.2 |
| 20260906121358 | 40 | 246 | 0.9 | 3.5 | 0.00 | 0.00 | 0.00 | 86 | 1018.9 |
| 20260906120831 | 40 | 240 | 0.0 | 3.5 | 0.00 | 0.00 | 0.00 | 86 | 1018.8 |
| 20260906120327 | 40 | 245 | 0.0 | 0.0 | 0.00 | 0.00 | 0.00 | 86 | 1018.8 |
| 20260906115805 | 40 | 245 | 0.0 | 1.7 | 0.00 | 0.00 | 0.00 | 86 | 1018.8 |
| 20260906115801 | 40 | 245 | 0.0 | 1.7 | 0.00 | 0.00 | 0.00 | 86 | 1018.8 |
| 20260906114731 | 40 | 244 | 0.0 | 1.7 | 0.00 | 0.00 | 0.00 | 86 | 1018.8 |
| 20260906114206 | 40 | 244 | 0.0 | 1.7 | 0.00 | 0.00 | 0.00 | 86 | 1018.8 |
| 20260906113703 | 40 | 244 | 0.0 | 1.7 | 0.00 | 0.00 | 0.00 | 86 | 1018.8 |
| 20260906113159 | 40 | 244 | 0.9 | 2.6 | 0.00 | 0.00 | 0.00 | 86 | 1018.8 |
| 20260906112650 | 40 | 244 | 0.9 | 3.5 | 0.00 | 0.00 | 0.00 | 86 | 1018.8 |
| 20260906112149 | 40 | 242 | 0.0 | 2.6 | 0.00 | 0.00 | 0.00 | 86 | 1018.8 |
| 20260906111623 | 40 | 243 | 0.9 | 4.3 | 0.00 | 0.00 | 0.00 | 85 | 1018.9 |
| 20260906111120 | 41 | 243 | 1.7 | 4.3 | 0.00 | 0.00 | 0.00 | 85 | 1018.9 |
| 20260906110553 | 41 | 246 | 2.6 | 6.1 | 0.00 | 0.00 | 0.00 | 85 | 1018.8 |
| 20260906110028 | 41 | 243 | 1.7 | 6.1 | 0.00 | 0.00 | 0.00 | 84 | 1018.8 |
| 20260906105503 | 41 | 250 | 1.7 | 4.3 | 0.00 | 0.00 | 0.00 | 84 | 1018.8 |
| 20260906105002 | 42 | 250 | 2.6 | 4.3 | 0.00 | 0.00 | 0.00 | 84 | 1018.9 |
| 20260906104445 | 42 | 241 | 2.6 | 6.1 | 0.00 | 0.00 | 0.00 | 83 | 1018.8 |
| 20260906103947 | 42 | 238 | 1.7 | 5.2 | 0.00 | 0.00 | 0.00 | 82 | 1018.9 |
| 20260906103653 | 43 | 254 | 1.7 | 3.5 | 0.00 | 0.00 | 0.00 | 82 | 1018.9 |
| 20260906102917 | 43 | 254 | 0.9 | 3.5 | 0.00 | 0.00 | 0.00 | 83 | 1018.8 |
| 20260906102623 | 42 | 250 | 2.6 | 7.0 | 0.00 | 0.00 | 0.00 | 83 | 1018.8 |
| 20260906102057 | 42 | 250 | 3.5 | 7.0 | 0.00 | 0.00 | 0.00 | 82 | 1018.8 |
| 20260906101322 | 43 | 244 | 0.9 | 3.5 | 0.00 | 0.00 | 0.00 | 81 | 1018.8 |
| 20260906100757 | 43 | 246 | 1.7 | 3.5 | 0.00 | 0.00 | 0.00 | 81 | 1018.8 |
| 20260906100525 | 43 | 246 | 1.7 | 3.5 | 0.00 | 0.00 | 0.00 | 80 | 1018.9 |
| 20260906095753 | 44 | 246 | 0.9 | 6.1 | 0.00 | 0.00 | 0.00 | 80 | 1018.8 |
| 20260906095228 | 44 | 246 | 2.6 | 6.1 | 0.00 | 0.00 | 0.00 | 79 | 1018.8 |
| 20260906094726 | 44 | 245 | 2.6 | 7.0 | 0.00 | 0.00 | 0.00 | 78 | 1018.6 |
| 20260906094202 | 45 | 243 | 1.7 | 7.0 | 0.00 | 0.00 | 0.00 | 77 | 1018.6 |
| 20260906093701 | 46 | 243 | 1.7 | 4.3 | 0.00 | 0.00 | 0.00 | 75 | 1018.6 |
| 20260906093145 | 46 | 257 | 2.6 | 6.1 | 0.00 | 0.00 | 0.00 | 75 | 1018.8 |
| 20260906092916 | 46 | 287 | 3.5 | 6.1 | 0.00 | 0.00 | 0.00 | 75 | 1018.8 |
| 20260906092145 | 46 | 260 | 2.6 | 6.1 | 0.00 | 0.00 | 0.00 | 75 | 1018.9 |
| 20260906091647 | 47 | 226 | 2.6 | 5.2 | 0.00 | 0.00 | 0.00 | 75 | 1018.9 |
| 20260906091128 | 47 | 251 | 2.6 | 6.1 | 0.00 | 0.00 | 0.00 | 73 | 1018.9 |
| 20260906090859 | 48 | 220 | 3.5 | 6.1 | 0.00 | 0.00 | 0.00 | 72 | 1018.8 |
| 20260906090111 | 48 | 216 | 3.5 | 7.0 | 0.00 | 0.00 | 0.00 | 70 | 1018.8 |
| 20260906085612 | 48 | 298 | 3.5 | 7.0 | 0.00 | 0.00 | 0.00 | 72 | 1018.8 |
| 20260906085054 | 49 | 301 | 4.3 | 7.0 | 0.00 | 0.00 | 0.00 | 70 | 1018.9 |
| 20260906084551 | 50 | 265 | 4.3 | 8.7 | 0.00 | 0.00 | 0.00 | 67 | 1018.9 |
| 20260906084050 | 50 | 298 | 4.3 | 8.7 | 0.00 | 0.00 | 0.00 | 69 | 1018.6 |
| 20260906083550 | 49 | 268 | 3.5 | 7.0 | 0.00 | 0.00 | 0.00 | 69 | 1018.8 |
| 20260906083028 | 50 | 235 | 1.7 | 5.2 | 0.00 | 0.00 | 0.00 | 69 | 1018.8 |
| 20260906082755 | 50 | 311 | 2.6 | 4.3 | 0.00 | 0.00 | 0.00 | 68 | 1018.9 |
| 20260906082242 | 50 | 319 | 1.7 | 4.3 | 0.00 | 0.00 | 0.00 | 67 | 1018.9 |
| 20260906081512 | 51 | 224 | 2.6 | 7.8 | 0.00 | 0.00 | 0.00 | 65 | 1018.9 |
| 20260906080947 | 51 | 300 | 2.6 | 7.8 | 0.00 | 0.00 | 0.00 | 67 | 1018.9 |
| 20260906080422 | 51 | 233 | 2.6 | 6.1 | 0.00 | 0.00 | 0.00 | 63 | 1019.1 |
| 20260906075856 | 54 | 285 | 2.6 | 6.1 | 0.00 | 0.00 | 0.00 | 60 | 1018.9 |
| 20260906075341 | 54 | 0 | 3.5 | 7.0 | 0.00 | 0.00 | 0.00 | 60 | 1018.9 |
| 20260906074838 | 54 | 295 | 3.5 | 7.0 | 0.00 | 0.00 | 0.00 | 61 | 1018.9 |
| 20260906074337 | 53 | 311 | 3.5 | 6.1 | 0.00 | 0.00 | 0.00 | 61 | 1018.9 |
| 20260906073829 | 53 | 310 | 4.3 | 6.1 | 0.00 | 0.00 | 0.00 | 60 | 1019.0 |
| 20260906073329 | 54 | 296 | 4.3 | 6.1 | 0.00 | 0.00 | 0.00 | 59 | 1019.1 |
| 20260906072826 | 55 | 275 | 5.2 | 7.0 | 0.00 | 0.00 | 0.00 | 58 | 1019.1 |
| 20260906071822 | 56 | 304 | 4.3 | 7.0 | 0.00 | 0.00 | 0.00 | 56 | 1019.2 |
| 20260906071254 | 56 | 296 | 4.3 | 7.0 | 0.00 | 0.00 | 0.00 | 57 | 1019.2 |
| 20260906070726 | 56 | 298 | 3.5 | 7.0 | 0.00 | 0.00 | 0.00 | 57 | 1019.1 |
| 20260906070456 | 55 | 0 | 3.5 | 7.0 | 0.00 | 0.00 | 0.00 | 56 | 1019.1 |
| 20260906065722 | 56 | 287 | 4.3 | 7.0 | 0.00 | 0.00 | 0.00 | 55 | 1019.2 |
| 20260906065156 | 57 | 301 | 5.2 | 7.8 | 0.00 | 0.00 | 0.00 | 54 | 1019.1 |
| 20260906064652 | 58 | 288 | 5.2 | 7.8 | 0.00 | 0.00 | 0.00 | 53 | 1019.0 |
| 20260906064150 | 58 | 290 | 5.2 | 7.8 | 0.00 | 0.00 | 0.00 | 52 | 1019.0 |
| 20260906063646 | 58 | 0 | 6.1 | 9.6 | 0.00 | 0.00 | 0.00 | 52 | 1019.1 |
| 20260906063120 | 58 | 319 | 6.1 | 9.6 | 0.00 | 0.00 | 0.00 | 52 | 1019.2 |
| 20260906062616 | 58 | 305 | 5.2 | 7.8 | 0.00 | 0.00 | 0.00 | 52 | 1019.3 |
| 20260906062341 | 58 | 265 | 4.3 | 7.8 | 0.00 | 0.00 | 0.00 | 52 | 1019.3 |
| 20260906061838 | 59 | 324 | 5.2 | 8.7 | 0.00 | 0.00 | 0.00 | 52 | 1019.3 |
| 20260906061041 | 58 | 291 | 5.2 | 8.7 | 0.00 | 0.00 | 0.00 | 52 | 1019.2 |
| 20260906060539 | 59 | 300 | 5.2 | 8.7 | 0.00 | 0.00 | 0.00 | 52 | 1019.2 |
| 20260906060035 | 59 | 301 | 4.3 | 8.7 | 0.00 | 0.00 | 0.00 | 51 | 1019.2 |
| 20260906055804 | 59 | 285 | 4.3 | 7.0 | 0.00 | 0.00 | 0.00 | 50 | 1019.1 |
| 20260906055005 | 59 | 288 | 6.1 | 7.8 | 0.00 | 0.00 | 0.00 | 50 | 1019.1 |
| 20260906054713 | 60 | 315 | 6.1 | 7.8 | 0.00 | 0.00 | 0.00 | 49 | 1019.0 |
| 20260906053913 | 60 | 299 | 6.1 | 8.7 | 0.00 | 0.00 | 0.00 | 50 | 1019.1 |
| 20260906053641 | 60 | 298 | 6.1 | 8.7 | 0.00 | 0.00 | 0.00 | 49 | 1019.1 |
| 20260906052841 | 60 | 285 | 5.2 | 7.8 | 0.00 | 0.00 | 0.00 | 49 | 1019.1 |
| 20260906052335 | 60 | 281 | 4.3 | 7.8 | 0.00 | 0.00 | 0.00 | 49 | 1019.1 |
| 20260906052040 | 60 | 277 | 6.1 | 10.4 | 0.00 | 0.00 | 0.00 | 49 | 1019.2 |
| 20260906051307 | 60 | 308 | 6.1 | 11.3 | 0.00 | 0.00 | 0.00 | 49 | 1019.1 |
| 20260906050804 | 60 | 0 | 6.1 | 11.3 | 0.00 | 0.00 | 0.00 | 48 | 1019.0 |
| 20260906050239 | 61 | 0 | 5.2 | 7.8 | 0.00 | 0.00 | 0.00 | 48 | 1019.0 |
| 20260906045944 | 61 | 308 | 5.2 | 7.8 | 0.00 | 0.00 | 0.00 | 48 | 1019.0 |
| 20260906045145 | 61 | 313 | 5.2 | 7.8 | 0.00 | 0.00 | 0.00 | 47 | 1019.0 |
| 20260906044619 | 61 | 302 | 5.2 | 7.8 | 0.00 | 0.00 | 0.00 | 47 | 1018.9 |
| 20260906044114 | 61 | 323 | 5.2 | 7.8 | 0.00 | 0.00 | 0.00 | 47 | 1019.0 |
| 20260906043549 | 61 | 304 | 4.3 | 7.0 | 0.00 | 0.00 | 0.00 | 47 | 1019.0 |
| 20260906043459 | 62 | 268 | 3.5 | 7.0 | 0.00 | 0.00 | 0.00 | 46 | 1018.9 |
| 20260906043337 | 62 | 269 | 4.3 | 7.0 | 0.00 | 0.00 | 0.00 | 46 | 1019.0 |
| 20260906042222 | 61 | 282 | 2.6 | 6.1 | 0.00 | 0.00 | 0.00 | 46 | 1018.9 |
| 20260906041716 | 61 | 249 | 2.6 | 5.2 | 0.00 | 0.00 | 0.00 | 46 | 1018.9 |
| 20260906040941 | 62 | 231 | 4.3 | 7.8 | 0.00 | 0.00 | 0.00 | 45 | 1018.8 |
| 20260906040416 | 62 | 254 | 4.3 | 7.8 | 0.00 | 0.00 | 0.00 | 45 | 1018.8 |
| 20260906035850 | 61 | 271 | 3.5 | 7.0 | 0.00 | 0.00 | 0.00 | 47 | 1018.8 |
| 20260906035345 | 61 | 254 | 4.3 | 7.0 | 0.00 | 0.00 | 0.00 | 46 | 1018.9 |
| 20260906034819 | 61 | 300 | 4.3 | 7.0 | 0.00 | 0.00 | 0.00 | 45 | 1018.8 |
| 20260906034253 | 62 | 309 | 3.5 | 7.8 | 0.00 | 0.00 | 0.00 | 45 | 1018.8 |
| 20260906034021 | 62 | 334 | 3.5 | 7.8 | 0.00 | 0.00 | 0.00 | 44 | 1018.8 |
| 20260906033223 | 62 | 311 | 4.3 | 7.8 | 0.00 | 0.00 | 0.00 | 43 | 1018.8 |
| 20260906032926 | 63 | 329 | 4.3 | 7.8 | 0.00 | 0.00 | 0.00 | 43 | 1018.6 |
| 20260906032150 | 63 | 261 | 3.5 | 7.0 | 0.00 | 0.00 | 0.00 | 43 | 1018.6 |
| 20260906031646 | 63 | 288 | 3.5 | 6.1 | 0.00 | 0.00 | 0.00 | 42 | 1018.5 |
| 20260906031121 | 64 | 324 | 3.5 | 6.1 | 0.00 | 0.00 | 0.00 | 42 | 1018.5 |
| 20260906030826 | 64 | 304 | 4.3 | 8.7 | 0.00 | 0.00 | 0.00 | 41 | 1018.4 |
| 20260906030027 | 64 | 281 | 4.3 | 8.7 | 0.00 | 0.00 | 0.00 | 41 | 1018.3 |
| 20260906025525 | 64 | 275 | 4.3 | 7.0 | 0.00 | 0.00 | 0.00 | 41 | 1018.3 |
| 20260906025021 | 64 | 321 | 3.5 | 6.1 | 0.00 | 0.00 | 0.00 | 42 | 1018.3 |
| 20260906024517 | 64 | 313 | 4.3 | 7.8 | 0.00 | 0.00 | 0.00 | 42 | 1018.2 |
| 20260906023951 | 65 | 246 | 5.2 | 7.8 | 0.00 | 0.00 | 0.00 | 41 | 1018.0 |
| 20260906023440 | 65 | 279 | 5.2 | 8.7 | 0.00 | 0.00 | 0.00 | 40 | 1018.0 |
| 20260906023213 | 65 | 306 | 4.3 | 7.8 | 0.00 | 0.00 | 0.00 | 40 | 1018.0 |
| 20260906022413 | 65 | 0 | 3.5 | 7.0 | 0.00 | 0.00 | 0.00 | 40 | 1017.9 |
| 20260906021911 | 65 | 0 | 2.6 | 7.0 | 0.00 | 0.00 | 0.00 | 39 | 1017.8 |
| 20260906021639 | 66 | 309 | 2.6 | 4.3 | 0.00 | 0.00 | 0.00 | 38 | 1017.8 |
| 20260906020841 | 67 | 247 | 3.5 | 11.3 | 0.00 | 0.00 | 0.00 | 37 | 1017.8 |
| 20260906020315 | 68 | 264 | 6.1 | 11.3 | 0.00 | 0.00 | 0.00 | 36 | 1017.7 |
| 20260906015809 | 70 | 248 | 6.1 | 11.3 | 0.00 | 0.00 | 0.00 | 34 | 1017.7 |
| 20260906015306 | 70 | 24 | 5.2 | 11.3 | 0.00 | 0.00 | 0.00 | 33 | 1017.6 |
| 20260906014804 | 70 | 350 | 5.2 | 13.9 | 0.00 | 0.00 | 0.00 | 33 | 1017.7 |
| 20260906014300 | 71 | 21 | 6.1 | 13.9 | 0.00 | 0.00 | 0.00 | 33 | 1017.6 |
| 20260906013757 | 71 | 349 | 7.0 | 11.3 | 0.00 | 0.00 | 0.00 | 33 | 1017.5 |
| 20260906013253 | 71 | 344 | 7.0 | 11.3 | 0.00 | 0.00 | 0.00 | 33 | 1017.5 |
| 20260906012748 | 71 | 20 | 5.2 | 12.2 | 0.00 | 0.00 | 0.00 | 32 | 1017.5 |
| 20260906012243 | 72 | 55 | 5.2 | 13.9 | 0.00 | 0.00 | 0.00 | 32 | 1017.5 |
| 20260906011715 | 72 | 29 | 7.0 | 13.9 | 0.00 | 0.00 | 0.00 | 32 | 1017.3 |
| 20260906011150 | 72 | 340 | 7.8 | 14.8 | 0.00 | 0.00 | 0.00 | 31 | 1017.5 |
| 20260906010647 | 72 | 0 | 7.8 | 14.8 | 0.00 | 0.00 | 0.00 | 31 | 1017.3 |
| 20260906010415 | 73 | 341 | 7.8 | 14.8 | 0.00 | 0.00 | 0.00 | 31 | 1017.2 |
| 20260906005640 | 73 | 355 | 7.8 | 14.8 | 0.00 | 0.00 | 0.00 | 31 | 1017.2 |
| 20260906005137 | 73 | 355 | 8.7 | 16.5 | 0.00 | 0.00 | 0.00 | 31 | 1017.2 |
| 20260906004633 | 73 | 13 | 7.8 | 16.5 | 0.00 | 0.00 | 0.00 | 32 | 1017.2 |
| 20260906004340 | 73 | 31 | 7.8 | 13.0 | 0.00 | 0.00 | 0.00 | 31 | 1017.0 |
| 20260906003603 | 73 | 355 | 8.7 | 16.5 | 0.00 | 0.00 | 0.00 | 32 | 1017.1 |
| 20260906003037 | 73 | 355 | 7.8 | 16.5 | 0.00 | 0.00 | 0.00 | 31 | 1017.1 |
| 20260906002513 | 74 | 37 | 6.1 | 15.6 | 0.00 | 0.00 | 0.00 | 30 | 1017.2 |
| 20260906002009 | 74 | 0 | 6.1 | 9.6 | 0.00 | 0.00 | 0.00 | 30 | 1017.1 |
| 20260906001447 | 74 | 17 | 6.1 | 14.8 | 0.00 | 0.00 | 0.00 | 31 | 1017.1 |
| 20260906000946 | 74 | 0 | 6.1 | 14.8 | 0.00 | 0.00 | 0.00 | 31 | 1017.2 |
| 20260906000659 | 75 | 34 | 8.7 | 14.8 | 0.00 | 0.00 | 0.00 | 31 | 1017.1 |
| 20260905235929 | 75 | 13 | 10.4 | 17.4 | 0.00 | 0.00 | 0.00 | 30 | 1017.1 |
| 20260905235428 | 75 | 21 | 9.6 | 17.4 | 0.00 | 0.00 | 0.00 | 30 | 1017.1 |
| 20260905234923 | 76 | 21 | 9.6 | 16.5 | 0.00 | 0.00 | 0.00 | 30 | 1017.0 |
| 20260905234400 | 76 | 31 | 8.7 | 16.5 | 0.00 | 0.00 | 0.00 | 30 | 1017.0 |
| 20260905233842 | 75 | 49 | 7.0 | 15.6 | 0.00 | 0.00 | 0.00 | 30 | 1017.0 |
| 20260905233344 | 76 | 333 | 6.1 | 15.6 | 0.00 | 0.00 | 0.00 | 30 | 1017.1 |
| 20260905233058 | 76 | 39 | 7.0 | 14.8 | 0.00 | 0.00 | 0.00 | 30 | 1017.0 |
| 20260905232544 | 75 | 336 | 7.0 | 15.6 | 0.00 | 0.00 | 0.00 | 30 | 1017.0 |
| 20260905231815 | 76 | 34 | 7.8 | 15.6 | 0.00 | 0.00 | 0.00 | 29 | 1017.0 |
| 20260905231533 | 77 | 49 | 7.0 | 16.5 | 0.00 | 0.00 | 0.00 | 28 | 1017.0 |
| 20260905230759 | 78 | 46 | 6.1 | 16.5 | 0.00 | 0.00 | 0.00 | 27 | 1017.0 |
| 20260905230257 | 78 | 17 | 8.7 | 14.8 | 0.00 | 0.00 | 0.00 | 28 | 1017.0 |